RH
2 4 3 8 67 81 100 100 100 81 76 66 52 46 44 42 35 25 23 24 27 31 32 31 29 28 25 24 20 20 16 17 20 29 25 23 30 44 38 28 21 13 16 10
3 6 5 73 100 100 99 98 84 87 85 69 58 48 44 43 39 30 30 33 42 40 32 29 26 23 23 22 21 20 23 20 26 29 25 22 28 47 43 30 24 14 15 8
13 4 54 77 100 98 93 94 97 100 99 87 67 53 47 42 40 37 37 40 41 37 32 28 25 23 21 19 18 15 14 21 25 33 27 25 29 48 52 33 25 15 14 9
32 56 75 97 91 97 97 98 100 97 95 86 72 54 60 45 42 41 40 38 35 32 29 26 23 22 20 17 15 11 9 12 19 36 29 34 39 47 60 38 23 15 13 10
48 73 94 72 82 100 89 100 98 99 95 100 85 68 50 50 46 42 38 35 32 28 25 22 19 17 15 13 9 7 7 8 10 28 31 37 47 46 64 40 23 16 13 10
100 71 93 96 100 94 100 97 98 99 100 89 86 73 87 81 48 37 32 26 24 22 20 17 16 14 12 8 7 6 6 6 9 21 32 42 52 49 66 45 28 18 14 10
84 95 99 100 100 99 99 100 100 100 97 68 93 73 69 88 58 36 27 23 19 19 18 18 15 12 10 10 10 10 9 7 8 21 33 49 54 57 71 49 31 19 14 11
83 99 100 100 100 100 100 100 100 100 100 98 92 66 94 67 28 23 24 22 18 18 16 14 13 12 10 10 10 11 10 8 9 19 47 55 60 70 76 57 31 20 15 11
95 100 100 100 100 100 100 96 100 99 98 98 100 97 74 38 26 21 18 16 15 14 14 15 14 13 11 10 10 9 9 10 12 25 58 61 78 84 79 64 27 21 16 14
100 97 100 100 100 100 100 100 100 96 91 88 91 99 97 88 33 19 16 15 14 14 13 11 10 7 5 5 6 10 11 14 17 52 64 74 97 84 76 69 29 22 17 16
96 92 100 100 100 100 100 98 99 91 73 98 99 98 100 68 36 21 15 14 12 14 12 8 9 13 14 12 16 14 21 23 48 70 80 98 97 82 68 71 27 26 19 19
100 100 100 100 100 100 100 95 72 78 63 36 72 97 99 60 19 14 15 16 35 24 18 14 27 35 25 24 25 30 50 65 80 98 99 97 87 81 69 76 31 26 22 24
91 100 100 100 100 96 97 59 76 93 92 41 37 79 77 31 14 12 11 10 13 33 56 38 42 48 51 34 34 45 70 91 100 99 99 95 94 78 69 73 52 27 24 24
97 100 100 100 100 100 91 81 59 63 38 77 24 75 86 15 30 23 17 9 11 21 58 77 66 53 59 55 54 49 65 100 97 94 93 92 96 85 77 82 45 59 38 23
100 100 100 100 100 97 100 64 44 61 40 42 92 23 20 25 32 28 26 16 13 26 32 62 77 74 66 69 76 73 84 98 95 98 97 95 100 92 85 87 50 68 74 51
94 100 100 100 100 100 84 61 59 62 56 40 40 53 18 19 26 31 25 23 33 33 44 64 70 85 87 96 94 97 98 100 97 99 98 100 84 91 95 100 70 77 75 68
100 100 100 100 100 100 100 99 99 95 66 36 25 22 11 17 12 19 31 29 32 38 46 51 94 78 98 99 96 100 94 99 91 99 96 100 95 96 97 99 98 93 90 98
100 100 100 100 100 100 84 99 96 67 46 34 20 11 11 16 6 19 35 53 58 58 58 62 97 95 99 99 99 95 93 98 100 99 99 99 94 97 96 96 97 97 96 97
98 99 86 66 72 67 84 92 76 54 33 18 7 6 42 49 32 72 63 83 84 88 86 92 94 97 98 100 98 98 95 93 93 100 98 94 87 90 98 97 97 97 96 97
86 62 50 40 18 21 71 55 58 29 17 11 8 10 32 68 76 92 93 82 87 83 72 84 96 97 96 98 100 99 98 99 89 95 100 96 100 85 99 98 97 96 97 96
34 40 42 44 41 43 32 22 15 13 23 11 9 10 34 86 88 93 93 92 98 100 98 100 100 100 98 97 97 100 97 100 97 90 97 96 94 94 95 96 97 98 98 98
30 40 34 37 47 48 47 42 34 20 13 12 12 11 9 9 10 18 31 45 98 96 98 97 98 98 99 100 99 95 97 99 99 98 100 99 97 97 100 95 93 97 97 97
57 37 38 43 54 51 52 53 50 44 35 25 20 18 18 16 13 12 9 11 84 100 100 94 90 83 92 98 100 98 99 96 97 97 97 98 97 97 97 98 99 98 99 96
38 42 46 50 51 44 44 50 57 58 55 49 45 43 41 34 25 20 13 10 11 30 83 100 98 86 80 85 96 97 97 98 96 98 99 99 100 98 98 98 100 100 98 98
42 43 45 44 48 48 37 48 64 64 52 48 40 32 26 21 15 13 12 12 10 10 20 44 84 99 95 92 90 90 90 92 97 99 99 97 97 97 97 98 97 97 97 98
39 44 45 40 37 35 36 34 60 95 86 74 56 41 32 28 29 24 21 21 22 17 10 9 15 21 38 49 52 42 61 71 79 78 80 83 77 80 88 87 91 93 95 94
Wind_Speed
58 61 62 50 56 57 61 54 55 64 62 60 58 57 54 49 52 53 52 50 47 47 47 46 48 47 48 46 43 40 42 41 44 45 43 37 32 28 27 25 26 26 26 26
54 61 50 50 52 59 62 62 64 63 58 62 60 55 53 52 51 51 50 47 48 48 47 48 48 48 48 47 45 42 40 41 44 46 46 42 36 28 28 26 26 27 26 27
47 47 51 49 52 60 65 64 60 56 55 60 59 54 52 49 50 50 49 50 49 48 48 49 49 49 49 47 48 46 43 40 42 43 47 47 40 30 27 26 25 27 26 26
41 43 46 46 48 53 62 61 55 54 55 55 47 49 34 49 52 50 51 50 50 49 50 49 48 48 49 49 48 46 47 41 42 41 45 47 42 33 28 26 26 28 27 26
39 40 43 49 45 48 53 48 44 47 48 50 50 49 39 43 44 46 47 48 48 49 46 46 46 47 47 45 45 43 45 43 43 40 44 47 40 35 28 26 26 27 26 26
30 38 41 35 36 44 42 41 41 36 33 44 44 42 24 30 41 45 43 42 44 44 44 43 44 44 43 43 43 42 42 42 42 40 44 46 38 38 28 27 25 26 26 25
33 32 34 33 34 38 42 38 30 30 34 41 25 33 25 34 39 34 38 40 41 43 44 44 42 41 42 41 43 44 40 41 41 38 44 45 39 39 28 27 23 26 25 23
31 29 24 33 32 33 38 37 31 29 22 24 31 26 22 39 29 29 33 38 36 39 40 41 40 41 41 42 44 46 43 43 42 39 44 43 43 36 28 26 23 26 23 21
29 26 23 20 24 32 32 36 33 18 25 25 15 21 28 27 33 28 31 32 33 33 35 37 39 40 39 42 46 45 43 43 44 41 42 43 40 34 28 25 23 27 23 21
24 30 22 20 26 29 20 32 33 29 24 21 14 15 22 20 27 26 28 27 28 32 34 36 36 38 40 40 40 40 41 42 42 39 42 42 39 34 28 23 25 27 25 23
9 23 16 21 25 23 29 26 26 25 25 19 15 19 25 22 23 23 27 25 27 32 35 36 36 35 36 37 39 39 38 41 35 40 41 46 41 30 26 23 25 26 26 24
24 19 19 16 22 22 21 21 24 24 24 23 20 19 16 19 22 25 25 23 25 32 34 37 34 32 36 40 39 35 34 34 37 41 48 49 32 29 27 23 25 26 28 24
24 19 15 16 22 23 21 24 25 21 18 19 18 15 18 22 22 26 23 25 27 29 31 35 32 33 35 34 33 36 35 37 43 50 51 41 32 29 26 26 25 26 29 29
20 17 17 18 14 19 20 19 21 21 19 19 15 24 22 17 15 20 20 23 25 29 33 35 30 31 33 38 40 41 39 42 49 53 51 37 34 34 28 29 26 25 28 30
22 19 22 17 20 19 19 19 19 19 17 14 18 21 17 14 17 19 18 21 23 26 30 33 31 29 32 36 42 45 43 47 55 54 47 38 40 38 32 29 30 30 30 30
18 20 24 16 19 19 17 17 16 15 15 17 17 19 14 16 16 16 17 19 17 24 28 25 28 36 36 36 41 44 45 48 51 51 42 43 44 40 36 35 34 34 34 34
18 12 18 17 16 16 17 19 15 15 19 16 16 17 16 17 16 17 16 18 18 21 23 25 25 22 38 37 44 44 48 50 51 51 41 47 44 40 37 37 36 37 36 35
17 32 22 22 19 18 18 17 15 19 13 15 15 16 11 17 18 18 17 17 16 17 16 20 17 6 30 32 41 43 43 43 42 45 46 43 42 42 42 42 40 42 39 39
10 10 10 7 7 8 13 14 15 16 13 14 15 16 17 18 18 17 18 19 19 20 19 18 20 20 14 41 38 34 43 42 45 47 45 46 48 47 45 44 45 41 38 38
7 4 5 5 6 11 14 12 15 13 15 16 16 17 18 17 17 17 17 19 23 20 20 20 21 21 27 21 49 44 47 47 46 44 61 54 57 52 50 48 45 40 40 49
4 4 5 10 12 11 9 11 13 15 18 17 17 17 19 20 20 17 15 14 9 10 11 15 19 23 25 28 25 44 49 50 49 51 43 66 54 52 53 50 50 46 44 34
1 1 3 5 14 15 16 14 12 14 16 18 18 18 18 19 20 19 19 17 18 17 18 15 16 15 19 24 25 31 29 54 53 55 64 65 59 62 59 56 56 57 45 43
5 4 5 7 11 16 19 20 21 19 18 17 18 18 19 19 20 20 18 19 22 21 20 15 15 17 17 20 21 27 26 32 28 38 42 42 50 53 59 64 55 63 52 52
10 9 8 9 13 13 15 17 19 23 24 24 25 25 25 24 25 26 24 22 22 25 27 26 24 19 18 21 23 22 19 20 23 23 23 24 33 35 44 50 59 64 60 59
13 12 11 11 15 17 16 16 16 17 19 20 21 23 24 25 25 25 27 24 24 27 31 30 32 29 27 30 31 29 28 27 26 24 24 25 28 27 27 27 30 32 34 37
12 12 13 15 17 16 17 18 19 18 18 18 18 18 18 19 19 20 22 23 23 23 29 35 38 38 36 35 34 34 36 33 31 30 29 28 29 28 30 29 30 32 33 36
Wind_Direction
238 236 237 244 239 237 235 238 245 239 242 247 246 242 247 244 245 243 244 245 251 256 258 259 261 262 263 262 259 254 255 257 261 264 267 267 264 268 275 280 279 271 277 281
230 232 235 232 233 233 232 231 234 236 234 241 244 244 244 247 245 247 247 247 253 254 252 253 256 260 261 261 263 260 256 254 258 262 267 268 263 263 269 276 278 272 277 282
230 228 227 230 233 231 231 231 230 234 234 237 240 242 245 247 246 246 246 249 250 251 252 254 255 258 261 263 263 263 258 251 253 256 262 267 266 261 265 273 274 270 276 280
222 223 226 225 236 237 234 229 230 229 230 232 240 239 253 247 245 247 248 248 251 252 254 254 256 257 258 260 261 262 262 256 249 251 256 260 265 258 263 271 270 269 273 281
218 217 221 225 231 239 234 228 222 224 227 228 231 237 237 249 251 247 249 253 254 254 253 252 252 253 254 256 258 256 257 256 250 250 252 256 259 257 260 267 269 266 271 278
216 218 225 230 237 232 223 218 221 217 221 228 227 236 237 256 247 249 250 251 252 252 251 250 251 251 251 251 251 252 252 252 251 250 251 253 254 254 257 264 269 262 268 276
205 226 227 231 236 228 214 212 215 219 221 225 230 231 231 237 250 251 249 249 251 254 254 254 252 249 248 247 247 250 250 250 249 248 248 249 249 251 254 262 266 257 263 269
209 217 229 230 233 230 218 209 202 220 227 227 230 230 226 241 252 253 251 254 255 254 253 253 251 248 246 248 248 249 250 249 248 244 241 245 244 247 253 259 262 253 255 265
201 211 212 213 211 208 219 225 208 196 196 181 217 211 237 251 247 246 251 251 251 252 250 249 249 251 251 247 248 250 249 246 245 238 236 239 240 244 251 257 256 249 250 257
184 211 210 225 207 183 209 202 206 197 201 211 221 210 235 245 249 253 250 254 253 249 248 249 250 253 254 250 244 242 240 240 239 228 231 236 236 241 247 255 253 248 246 253
185 199 206 207 198 195 184 192 192 200 208 192 193 216 231 241 254 255 256 253 254 256 254 252 251 250 249 247 243 236 233 234 224 224 229 230 231 237 245 251 249 244 243 250
166 204 193 201 205 186 180 193 197 204 206 213 210 229 238 246 260 257 255 251 251 253 255 255 251 244 241 242 237 229 224 223 221 223 218 226 225 236 247 252 246 242 243 248
186 179 180 190 191 189 194 199 203 207 216 214 217 235 258 251 262 260 256 252 248 250 251 255 253 243 242 236 227 222 222 222 218 221 231 226 226 238 245 247 248 244 243 246
176 173 172 193 204 190 195 198 205 211 217 219 215 223 237 255 265 263 267 258 253 250 248 256 257 249 243 236 231 222 221 219 220 220 228 224 229 238 241 245 248 246 245 245
175 187 186 189 201 186 192 202 202 211 216 213 218 240 246 252 255 261 265 262 252 253 256 252 255 252 245 239 228 220 219 219 226 233 229 224 232 238 241 241 245 249 250 248
189 192 191 178 187 191 199 208 212 218 220 218 221 242 241 248 254 255 258 265 266 258 261 257 259 249 244 232 219 217 214 221 231 238 223 228 235 235 236 239 242 244 249 250
201 184 198 205 202 198 210 212 217 226 226 229 231 245 254 252 258 258 266 277 274 269 268 262 263 276 209 225 213 212 217 222 229 234 234 235 233 236 236 236 240 245 252 256
177 208 196 204 207 208 228 224 222 239 235 236 239 241 251 257 250 262 260 265 278 272 268 270 250 240 195 221 209 214 218 223 229 230 230 233 237 239 243 243 243 250 253 257
112 129 142 161 198 219 228 228 229 239 233 232 231 229 224 247 251 255 259 255 273 276 273 267 249 249 241 184 214 216 226 224 223 223 234 237 239 241 246 250 253 256 259 262
119 149 155 188 207 217 233 231 233 237 233 230 230 229 229 244 258 261 282 285 273 293 286 274 272 270 251 239 193 212 223 226 228 233 233 228 232 240 244 250 255 258 262 264
139 143 212 223 233 238 230 228 235 231 236 231 232 233 233 237 253 259 267 309 278 271 277 271 265 259 263 263 257 191 198 211 226 227 228 221 234 246 246 250 256 251 249 235
210 302 297 250 238 242 237 239 235 237 239 239 237 238 242 248 257 263 269 276 261 273 274 270 292 278 268 258 251 252 224 217 221 223 226 230 242 242 235 244 254 253 231 223
261 264 267 260 248 245 247 240 242 244 244 246 246 247 253 256 261 269 271 268 260 273 276 271 268 286 276 275 271 254 244 242 246 224 224 225 226 242 239 240 246 237 223 220
264 263 257 246 243 245 245 245 245 246 250 253 257 261 264 268 270 273 274 269 262 273 278 268 265 280 286 288 285 282 282 275 256 254 252 245 245 236 231 234 239 232 228 225
256 262 259 254 248 243 248 250 250 246 245 247 251 253 256 259 262 267 273 277 269 262 262 267 269 274 270 282 291 294 297 297 290 284 277 268 252 251 252 249 252 251 254 254
252 254 258 252 252 251 248 245 249 253 254 256 258 258 259 261 266 272 277 285 286 273 265 265 268 273 276 279 279 279 281 283 284 283 283 283 282 282 283 281 275 269 264 263